Total_Precipitation_Accumulation
2.33 2.77 3.49 4.50 5.05 5.73 5.60 5.15 4.84 4.64 4.59 4.54 4.55 4.51 4.58 4.72 4.82 4.71 4.51 4.47 4.36 4.48 4.76 4.56 4.50 4.26 4.17 4.23 4.22 4.06 3.95 3.76 3.65 3.55 3.18 2.66 2.23 2.03 1.91 1.93 2.00 1.99 1.93
2.52 3.18 3.75 4.35 4.75 4.90 5.06 5.29 5.24 5.16 4.89 4.84 5.10 5.46 5.69 5.55 5.57 5.49 5.46 5.28 5.11 5.09 5.09 5.01 4.65 4.43 4.31 4.16 4.05 3.94 3.84 3.60 3.56 3.64 3.58 3.11 2.71 2.20 1.75 1.85 1.89 1.90 1.94
2.23 2.93 3.48 3.91 4.44 4.79 4.87 5.14 5.19 5.35 5.61 5.79 5.86 6.17 6.44 6.26 6.03 5.66 5.50 5.25 4.97 4.92 4.87 4.77 4.54 4.41 4.20 4.04 3.99 3.91 3.83 3.65 3.56 3.59 3.77 3.56 3.01 2.46 2.03 1.85 1.82 1.86 1.92
2.12 2.50 2.97 3.28 3.70 4.04 4.37 4.77 4.95 5.13 5.69 6.43 6.66 6.67 6.75 6.57 6.21 5.88 5.56 5.23 4.89 4.62 4.47 4.52 4.42 4.27 4.03 3.88 3.58 3.56 3.66 3.81 3.60 3.46 3.22 3.06 2.81 2.71 2.50 2.21 2.01 1.89 1.85
2.04 2.22 2.36 2.74 3.29 3.54 3.79 4.31 4.72 5.17 5.81 6.34 6.68 6.88 6.76 6.50 6.17 5.71 5.36 5.05 4.67 4.27 4.00 4.04 3.97 3.78 3.57 3.44 3.26 3.23 3.30 3.38 3.36 3.33 3.18 3.04 2.84 2.61 2.56 2.43 2.20 2.06 1.88
1.89 2.01 2.22 2.46 2.79 3.12 3.42 3.77 4.33 5.00 5.43 5.79 6.13 6.29 6.35 6.23 5.89 5.40 5.07 4.75 4.41 4.06 3.74 3.40 3.37 3.32 3.16 2.97 2.91 2.89 2.87 2.94 3.00 3.07 2.97 2.83 2.75 2.66 2.65 2.52 2.33 2.23 2.05
1.78 2.06 2.23 2.45 2.69 2.98 3.35 3.71 4.10 4.63 4.93 5.03 5.20 5.49 5.67 5.66 5.51 5.26 4.91 4.49 4.02 3.56 3.28 3.03 2.93 2.85 2.80 2.69 2.60 2.60 2.49 2.43 2.51 2.51 2.59 2.61 2.50 2.39 2.48 2.57 2.45 2.24 2.11
2.00 2.10 2.16 2.36 2.68 2.88 3.06 3.44 3.67 4.17 4.45 4.33 4.43 4.74 4.96 4.91 4.76 4.51 4.06 3.64 3.29 3.01 2.77 2.66 2.45 2.25 2.14 2.07 2.18 2.24 2.19 2.14 2.13 2.05 2.28 2.36 2.27 2.25 2.27 2.34 2.54 2.49 2.27
2.07 2.14 2.06 2.16 2.39 2.66 2.85 3.02 3.18 3.55 3.81 3.79 3.83 3.87 3.88 3.87 3.77 3.55 3.20 2.84 2.60 2.38 2.30 2.18 2.12 2.03 1.91 1.86 1.87 1.91 2.00 2.00 1.92 1.92 2.05 2.04 1.98 2.00 2.04 2.14 2.32 2.58 2.52
1.84 1.94 2.01 2.10 2.02 2.11 2.42 2.66 2.72 2.88 3.03 3.03 3.03 3.02 3.08 3.13 3.03 2.75 2.42 2.26 2.19 2.06 1.92 1.85 1.82 1.83 1.78 1.75 1.82 1.80 1.85 1.92 1.82 1.78 1.77 1.74 1.70 1.81 1.82 1.91 2.03 2.22 2.43
1.72 1.85 1.96 2.01 1.89 1.81 1.92 2.14 2.36 2.47 2.59 2.69 2.73 2.60 2.54 2.45 2.38 2.23 2.01 1.97 1.95 1.83 1.72 1.64 1.59 1.57 1.60 1.60 1.64 1.59 1.55 1.55 1.51 1.42 1.39 1.42 1.51 1.67 1.68 1.70 1.83 2.04 2.25
1.88 1.93 2.10 2.05 1.93 1.97 1.96 1.95 2.05 2.18 2.28 2.35 2.45 2.47 2.37 2.15 2.04 1.94 1.84 1.74 1.68 1.64 1.61 1.49 1.44 1.40 1.35 1.32 1.30 1.31 1.33 1.34 1.32 1.32 1.36 1.35 1.42 1.55 1.60 1.67 1.73 1.88 2.14
2.21 2.18 2.23 2.15 2.05 2.03 1.91 1.76 1.81 1.92 2.02 2.13 2.15 2.11 2.04 1.92 1.81 1.78 1.77 1.65 1.57 1.49 1.43 1.41 1.37 1.31 1.32 1.23 1.14 1.14 1.22 1.21 1.18 1.24 1.30 1.37 1.60 1.62 1.61 1.68 1.72 1.81 1.92
2.38 2.33 2.32 2.30 2.20 2.09 1.91 1.76 1.71 1.68 1.64 1.76 1.88 1.88 1.85 1.81 1.72 1.62 1.59 1.55 1.52 1.45 1.39 1.39 1.31 1.26 1.23 1.21 1.16 1.12 1.17 1.19 1.17 1.21 1.29 1.38 1.55 1.65 1.73 1.70 1.79 1.85 1.98
2.48 2.42 2.48 2.42 2.38 2.33 2.17 2.02 1.85 1.70 1.63 1.61 1.58 1.66 1.78 1.79 1.73 1.66 1.62 1.58 1.48 1.37 1.37 1.36 1.27 1.24 1.20 1.13 1.13 1.12 1.15 1.23 1.24 1.19 1.19 1.23 1.35 1.47 1.48 1.38 1.52 1.72 1.98
2.51 2.56 2.70 2.66 2.60 2.56 2.38 2.21 2.04 1.78 1.63 1.60 1.57 1.60 1.67 1.67 1.62 1.59 1.54 1.49 1.43 1.42 1.40 1.37 1.29 1.20 0.95 1.05 1.08 1.08 1.15 1.22 1.22 1.19 1.18 1.12 1.09 1.05 1.06 1.11 1.19 1.39 1.69
2.80 2.84 2.78 2.76 2.70 2.62 2.63 2.61 2.34 2.02 1.87 1.75 1.62 1.60 1.57 1.52 1.49 1.39 1.36 1.43 1.44 1.41 1.34 1.29 1.27 1.19 1.05 1.04 0.98 1.02 1.13 1.25 1.32 1.36 1.33 1.03 0.87 1.00 1.01 1.06 1.13 1.25 1.44
2.68 2.74 2.68 2.70 2.66 2.57 2.54 2.53 2.43 2.19 1.90 1.77 1.63 1.52 1.51 1.47 1.47 1.44 1.41 1.45 1.48 1.40 1.39 1.35 1.31 1.29 1.14 1.05 0.96 1.01 1.07 1.23 1.25 1.25 1.28 1.25 1.13 1.06 1.14 1.21 1.27 1.37 1.49
2.51 2.58 2.68 2.71 2.70 2.60 2.41 2.32 2.24 2.14 2.01 1.78 1.56 1.43 1.43 1.41 1.40 1.41 1.41 1.44 1.45 1.38 1.33 1.31 1.34 1.39 1.31 1.15 1.01 0.94 0.96 1.09 1.13 1.10 1.08 1.06 1.10 1.19 1.36 1.47 1.66 1.75 1.84
2.48 2.59 2.70 2.76 2.74 2.69 2.37 2.21 2.09 1.95 1.78 1.56 1.41 1.36 1.37 1.32 1.28 1.34 1.38 1.41 1.42 1.38 1.34 1.30 1.33 1.32 1.22 1.05 0.89 0.85 0.85 1.00 1.07 1.14 1.11 1.00 0.95 1.11 1.29 1.50 1.83 1.97 2.03
2.43 2.52 2.55 2.58 2.54 2.53 2.30 2.17 1.96 1.80 1.51 1.29 1.25 1.29 1.29 1.24 1.18 1.23 1.28 1.35 1.33 1.34 1.35 1.27 1.24 1.16 1.02 0.94 0.82 0.78 0.78 0.90 1.03 1.09 1.13 1.08 1.00 1.07 1.30 1.52 1.73 1.89 1.96
2.26 2.35 2.39 2.37 2.27 2.19 2.11 1.99 1.82 1.54 1.35 1.22 1.19 1.25 1.32 1.16 1.06 1.14 1.13 1.17 1.33 1.29 1.27 1.28 1.18 1.03 0.96 0.83 0.76 0.74 0.72 0.77 0.97 1.15 1.15 1.17 1.16 1.18 1.36 1.50 1.74 1.96 2.06
2.02 2.08 1.99 1.88 1.89 1.85 1.81 1.73 1.56 1.35 1.24 1.26 1.30 1.30 1.28 1.22 1.19 1.20 1.15 1.17 1.27 1.27 1.19 1.17 1.10 0.96 0.92 0.84 0.78 0.77 0.79 0.82 0.92 1.09 1.17 1.19 1.19 1.28 1.53 1.70 1.89 2.07 2.16
1.66 1.74 1.72 1.64 1.61 1.55 1.47 1.41 1.28 1.24 1.24 1.27 1.35 1.43 1.33 1.19 1.19 1.25 1.13 1.13 1.13 1.15 1.12 1.10 1.08 1.01 0.95 0.85 0.78 0.81 0.87 0.91 0.93 1.01 1.18 1.29 1.33 1.45 1.72 1.93 2.12 2.20 2.14
1.38 1.41 1.52 1.54 1.41 1.31 1.27 1.21 1.12 1.13 1.26 1.32 1.28 1.32 1.25 1.20 1.22 1.20 1.07 0.99 0.94 0.99 1.06 1.05 1.06 1.03 0.95 0.89 0.91 0.86 0.82 0.84 0.86 0.96 1.13 1.30 1.43 1.59 1.79 1.97 2.05 2.05 1.97
1.25 1.31 1.37 1.34 1.27 1.19 1.13 1.07 0.99 1.03 1.19 1.27 1.23 1.16 1.12 1.13 1.10 1.15 1.12 1.05 0.98 0.93 0.89 0.91 0.86 0.83 0.87 0.87 0.85 0.81 0.81 0.82 0.88 0.95 1.16 1.32 1.41 1.58 1.77 1.92 1.94 1.88 1.78